KB0RPJ Weather Reports


time (UTC)temp
C
wind
direction
speed
KPH
gust
KPH
rain 1hr
cm
rain 24hr
cm
rain mn
cm
humidity
%
barometer
mb
20260906165004 31 101 4.8 4.8 0.00 0.00 0.00 68 1016.1
20260906164505 31 173 4.8 8.0 0.00 0.00 0.00 68 1016.2
20260906164005 31 75 1.6 3.2 0.00 0.00 0.00 69 1016.2
20260906163505 31 156 6.4 8.0 0.00 0.00 0.00 70 1016.2
20260906163004 30 137 8.0 11.3 0.00 0.00 0.00 73 1016.2
20260906162504 30 149 1.6 8.0 0.00 0.00 0.00 73 1016.3
20260906162006 30 83 1.6 3.2 0.00 0.00 0.00 73 1016.4
20260906161504 29 118 3.2 4.8 0.00 0.00 0.00 74 1016.4
20260906161005 29 94 1.6 4.8 0.00 0.00 0.00 74 1016.4
20260906160504 29 73 1.6 4.8 0.00 0.00 0.00 75 1016.5
20260906160004 28 57 1.6 4.8 0.00 0.00 0.00 75 1016.5
20260906155504 28 121 6.4 9.7 0.00 0.00 0.00 78 1016.4
20260906155005 28 138 3.2 4.8 0.00 0.00 0.00 78 1016.4
20260906154504 28 99 4.8 4.8 0.00 0.00 0.00 78 1016.5
20260906154004 27 65 1.6 4.8 0.00 0.00 0.00 79 1016.6
20260906153504 27 151 3.2 4.8 0.00 0.00 0.00 79 1016.5
20260906153005 27 129 1.6 11.3 0.00 0.00 0.00 80 1016.5
20260906152504 27 140 3.2 11.3 0.00 0.00 0.00 81 1016.5
20260906152005 27 148 1.6 11.3 0.00 0.00 0.00 81 1016.5
20260906151504 27 63 3.2 3.2 0.00 0.00 0.00 81 1016.5
20260906151005 26 115 1.6 4.8 0.00 0.00 0.00 82 1016.6
20260906150504 26 64 3.2 4.8 0.00 0.00 0.00 82 1016.6
20260906150005 26 38 3.2 4.8 0.00 0.00 0.00 83 1016.5
20260906145504 26 142 1.6 8.0 0.00 0.00 0.00 83 1016.6
20260906145005 26 57 3.2 3.2 0.00 0.00 0.00 84 1016.6
20260906144504 26 83 1.6 4.8 0.00 0.00 0.00 84 1016.5
20260906144005 26 99 6.4 8.0 0.00 0.00 0.00 85 1016.5
20260906143505 26 122 0.0 3.2 0.00 0.00 0.00 85 1016.4
20260906143004 26 139 1.6 3.2 0.00 0.00 0.00 85 1016.4
20260906142504 26 259 3.2 4.8 0.00 0.00 0.00 86 1016.4
20260906142005 26 107 0.0 1.6 0.00 0.00 0.00 86 1016.4
20260906141505 25 65 3.2 4.8 0.00 0.00 0.00 87 1016.5
20260906141005 25 82 1.6 4.8 0.00 0.00 0.00 87 1016.5
20260906140505 25 143 3.2 4.8 0.00 0.00 0.00 88 1016.5
20260906140004 25 148 6.4 8.0 0.00 0.00 0.00 88 1016.4
20260906135504 25 114 4.8 4.8 0.00 0.00 0.00 89 1016.4
20260906135005 25 54 3.2 3.2 0.00 0.00 0.00 89 1016.5
20260906134504 25 76 3.2 3.2 0.00 0.00 0.00 90 1016.4
20260906134005 25 76 3.2 4.8 0.00 0.00 0.00 90 1016.4
20260906133504 25 122 3.2 4.8 0.00 0.00 0.00 91 1016.4
20260906133004 24 81 1.6 4.8 0.00 0.00 0.00 91 1016.5
20260906132505 24 63 1.6 4.8 0.00 0.00 0.00 91 1016.5
20260906132004 24 127 1.6 3.2 0.00 0.00 0.00 91 1016.5
20260906131504 24 128 3.2 4.8 0.00 0.00 0.00 92 1016.4
20260906131005 24 48 1.6 4.8 0.00 0.00 0.00 92 1016.4
20260906130504 24 60 3.2 3.2 0.00 0.00 0.00 92 1016.3
20260906130005 24 67 1.6 1.6 0.00 0.00 0.00 93 1016.3
20260906125505 24 149 3.2 4.8 0.00 0.00 0.00 93 1016.3
20260906125005 23 63 3.2 3.2 0.00 0.00 0.00 93 1016.2
20260906124504 23 76 1.6 4.8 0.00 0.00 0.00 93 1016.1
20260906124005 23 87 0.0 4.8 0.00 0.00 0.00 93 1016.0
20260906123505 23 142 0.0 1.6 0.00 0.00 0.00 93 1016.0
20260906123004 23 132 0.0 0.0 0.00 0.00 0.00 93 1016.0
20260906122504 23 48 0.0 0.0 0.00 0.00 0.00 93 1015.9
20260906122004 23 173 0.0 0.0 0.00 0.00 0.00 93 1015.8
20260906121504 23 63 0.0 0.0 0.00 0.00 0.00 93 1015.7
20260906121004 23 105 0.0 0.0 0.00 0.00 0.00 93 1015.6
20260906120505 23 104 0.0 1.6 0.00 0.00 0.00 93 1015.5
20260906120005 23 66 1.6 3.2 0.00 0.00 0.00 93 1015.5
20260906115505 23 16 1.6 3.2 0.00 0.00 0.00 93 1015.4
20260906115004 23 58 0.0 0.0 0.00 0.00 0.00 93 1015.4
20260906114504 24 61 0.0 1.6 0.00 0.00 0.00 93 1015.3
20260906114005 24 99 0.0 1.6 0.00 0.00 0.00 93 1015.4
20260906113505 24 69 1.6 1.6 0.00 0.00 0.00 93 1015.3
20260906113005 24 71 0.0 3.2 0.00 0.00 0.00 92 1015.3
20260906112504 24 83 0.0 3.2 0.00 0.00 0.00 92 1015.3
20260906112005 24 86 0.0 0.0 0.00 0.00 0.00 92 1015.3
20260906111505 24 123 1.6 1.6 0.00 0.00 0.00 92 1015.3
20260906111005 24 59 0.0 0.0 0.00 0.00 0.00 92 1015.2
20260906110504 24 59 0.0 0.0 0.00 0.00 0.00 92 1015.2
20260906110005 24 88 1.6 1.6 0.00 0.00 0.00 92 1015.1
20260906105504 24 334 0.0 0.0 0.00 0.00 0.00 92 1015.1
20260906105005 24 334 0.0 0.0 0.00 0.00 0.00 92 1015.1
20260906104505 24 85 0.0 0.0 0.00 0.00 0.00 92 1015.1
20260906104005 24 86 1.6 1.6 0.00 0.00 0.00 91 1015.1
20260906103504 24 87 0.0 0.0 0.00 0.00 0.00 91 1015.0
20260906103005 24 79 0.0 0.0 0.00 0.00 0.00 91 1015.1
20260906102504 24 78 0.0 0.0 0.00 0.00 0.00 91 1015.1
20260906102005 24 79 0.0 0.0 0.00 0.00 0.00 91 1015.1
20260906101504 24 74 0.0 0.0 0.00 0.00 0.00 91 1015.0
20260906101005 24 88 0.0 0.0 0.00 0.00 0.00 91 1015.0
20260906100504 24 88 0.0 0.0 0.00 0.00 0.00 91 1015.0
20260906100004 24 92 0.0 0.0 0.00 0.00 0.00 91 1015.0
20260906095504 25 92 0.0 0.0 0.00 0.00 0.00 91 1015.0
20260906095004 25 60 0.0 0.0 0.00 0.00 0.00 90 1014.9
20260906094504 25 49 0.0 0.0 0.00 0.00 0.00 90 1014.8
20260906094005 25 98 0.0 0.0 0.00 0.00 0.00 90 1014.7
20260906093505 25 82 0.0 0.0 0.00 0.00 0.00 90 1014.8
20260906093007 25 7 0.0 0.0 0.00 0.00 0.00 89 1014.7
20260906092505 25 24 0.0 0.0 0.00 0.00 0.00 89 1014.7
20260906092005 25 67 0.0 0.0 0.00 0.00 0.00 89 1014.6
20260906091504 25 67 0.0 0.0 0.00 0.00 0.00 89 1014.6
20260906091005 25 75 0.0 0.0 0.00 0.00 0.00 89 1014.6
20260906090505 25 75 0.0 0.0 0.00 0.00 0.00 88 1014.6
20260906090004 25 75 0.0 0.0 0.00 0.00 0.00 88 1014.5
20260906085505 25 75 0.0 0.0 0.00 0.00 0.00 88 1014.4
20260906085005 25 75 0.0 0.0 0.00 0.00 0.00 87 1014.3
20260906084504 25 75 0.0 3.2 0.00 0.00 0.00 87 1014.3
20260906084005 25 75 1.6 3.2 0.00 0.00 0.00 87 1014.4
20260906083505 25 36 0.0 1.6 0.00 0.00 0.00 87 1014.4
20260906083005 25 42 0.0 0.0 0.00 0.00 0.00 86 1014.4
20260906082505 25 42 1.6 3.2 0.00 0.00 0.00 86 1014.4
20260906082004 25 46 0.0 3.2 0.00 0.00 0.00 86 1014.3
20260906081505 25 54 3.2 4.8 0.00 0.00 0.00 86 1014.2
20260906081005 25 76 1.6 3.2 0.00 0.00 0.00 86 1014.2
20260906080504 25 40 1.6 4.8 0.00 0.00 0.00 86 1014.2
20260906080005 25 45 1.6 3.2 0.00 0.00 0.00 85 1014.1
20260906075504 25 23 1.6 1.6 0.00 0.00 0.00 85 1014.0
20260906075005 25 102 6.4 9.7 0.00 0.00 0.00 85 1014.1
20260906074505 25 58 3.2 3.2 0.00 0.00 0.00 85 1014.2
20260906074005 25 26 0.0 0.0 0.00 0.00 0.00 85 1014.2
20260906073504 25 32 0.0 0.0 0.00 0.00 0.00 85 1014.1
20260906073005 25 51 1.6 3.2 0.00 0.00 0.00 85 1014.2
20260906072505 25 75 0.0 0.0 0.00 0.00 0.00 84 1014.1
20260906072005 25 75 1.6 3.2 0.00 0.00 0.00 84 1014.1
20260906071504 25 353 3.2 4.8 0.00 0.00 0.00 84 1014.1
20260906071005 25 24 1.6 1.6 0.00 0.00 0.00 84 1014.2
20260906070504 25 24 1.6 3.2 0.00 0.00 0.00 83 1014.3
20260906070005 26 24 1.6 1.6 0.00 0.00 0.00 83 1014.3
20260906065505 26 49 0.0 1.6 0.00 0.00 0.00 83 1014.4
20260906065005 26 46 3.2 4.8 0.00 0.00 0.00 83 1014.4
20260906064504 26 46 1.6 1.6 0.00 0.00 0.00 83 1014.6
20260906064005 26 46 1.6 3.2 0.00 0.00 0.00 82 1014.6
20260906063505 26 48 0.0 0.0 0.00 0.00 0.00 82 1014.6
20260906063005 26 48 0.0 0.0 0.00 0.00 0.00 81 1014.7
20260906062505 26 48 0.0 0.0 0.00 0.00 0.00 81 1014.7
20260906062005 26 47 0.0 0.0 0.00 0.00 0.00 81 1014.7
20260906061504 26 48 0.0 0.0 0.00 0.00 0.00 80 1014.8
20260906061005 26 47 0.0 1.6 0.00 0.00 0.00 80 1014.8
20260906060504 26 32 1.6 3.2 0.00 0.00 0.00 80 1014.8
20260906060004 26 32 0.0 1.6 0.00 0.00 0.00 80 1014.8
20260906055504 26 32 1.6 1.6 0.00 0.00 0.00 80 1014.8
20260906055005 26 32 1.6 1.6 0.00 0.00 0.00 79 1014.8
20260906054504 26 32 3.2 3.2 0.00 0.00 0.00 79 1014.8
20260906054005 26 32 1.6 3.2 0.00 0.00 0.00 79 1014.8
20260906053505 26 32 1.6 1.6 0.00 0.00 0.00 79 1014.7
20260906053005 26 32 1.6 3.2 0.00 0.00 0.00 78 1014.7
20260906052505 26 54 0.0 3.2 0.00 0.00 0.00 78 1014.7
20260906052005 27 55 1.6 1.6 0.00 0.00 0.00 78 1014.7
20260906051504 27 55 0.0 1.6 0.00 0.00 0.00 77 1014.7
20260906051005 27 55 0.0 0.0 0.00 0.00 0.00 77 1014.6
20260906050505 27 55 0.0 0.0 0.00 0.00 0.00 77 1014.6
20260906050004 27 55 0.0 0.0 0.00 0.00 0.00 76 1014.6
20260906045504 27 55 1.6 1.6 0.00 0.00 0.00 76 1014.5
20260906045005 27 55 1.6 1.6 0.00 0.00 0.00 76 1014.5
20260906044504 27 31 0.0 1.6 0.00 0.00 0.00 75 1014.5
20260906044005 27 25 0.0 0.0 0.00 0.00 0.00 75 1014.5
20260906043504 27 25 0.0 0.0 0.00 0.00 0.00 74 1014.4
20260906043005 27 25 0.0 0.0 0.00 0.00 0.00 74 1014.4
20260906042504 27 25 0.0 1.6 0.00 0.00 0.00 74 1014.4
20260906042005 27 30 1.6 3.2 0.00 0.00 0.00 73 1014.4
20260906041505 27 5 3.2 3.2 0.00 0.00 0.00 73 1014.3
20260906041005 27 35 3.2 3.2 0.00 0.00 0.00 73 1014.2
20260906040504 27 40 1.6 3.2 0.00 0.00 0.00 72 1014.2
20260906040005 27 46 1.6 3.2 0.00 0.00 0.00 72 1014.2
20260906035505 27 46 3.2 3.2 0.00 0.00 0.00 71 1014.1
20260906035005 27 46 1.6 1.6 0.00 0.00 0.00 71 1014.0
20260906034504 28 46 1.6 3.2 0.00 0.00 0.00 70 1013.9
20260906034005 28 46 1.6 3.2 0.00 0.00 0.00 70 1013.9
20260906033505 28 46 1.6 1.6 0.00 0.00 0.00 69 1013.8
20260906033005 28 27 1.6 3.2 0.00 0.00 0.00 69 1013.7
20260906032504 28 19 1.6 3.2 0.00 0.00 0.00 69 1013.6
20260906032005 28 19 1.6 3.2 0.00 0.00 0.00 68 1013.7
20260906031505 28 19 3.2 3.2 0.00 0.00 0.00 68 1013.6
20260906031005 28 19 1.6 1.6 0.00 0.00 0.00 67 1013.5
20260906030504 28 19 1.6 3.2 0.00 0.00 0.00 67 1013.5
20260906030005 28 10 1.6 3.2 0.00 0.00 0.00 67 1013.5
20260906025505 28 44 1.6 3.2 0.00 0.00 0.00 66 1013.4
20260906025004 28 42 1.6 3.2 0.00 0.00 0.00 66 1013.4
20260906024505 28 11 3.2 4.8 0.00 0.00 0.00 66 1013.4
20260906024005 28 51 0.0 4.8 0.00 0.00 0.00 66 1013.4
20260906023504 28 42 0.0 0.0 0.00 0.00 0.00 66 1013.4
20260906023005 28 42 0.0 0.0 0.00 0.00 0.00 66 1013.3
20260906022505 28 42 0.0 0.0 0.00 0.00 0.00 66 1013.2
20260906022004 28 42 0.0 0.0 0.00 0.00 0.00 66 1013.2
20260906021505 29 42 0.0 0.0 0.00 0.00 0.00 65 1013.2
20260906021005 29 52 0.0 0.0 0.00 0.00 0.00 64 1013.1
20260906020504 29 52 0.0 0.0 0.00 0.00 0.00 63 1013.0
20260906020004 29 52 0.0 0.0 0.00 0.00 0.00 63 1012.9
20260906015505 29 37 0.0 0.0 0.00 0.00 0.00 62 1012.7
20260906015005 30 28 0.0 0.0 0.00 0.00 0.00 62 1012.6
20260906014505 30 28 0.0 0.0 0.00 0.00 0.00 61 1012.5
20260906014004 30 28 0.0 0.0 0.00 0.00 0.00 61 1012.5
20260906013505 30 28 0.0 0.0 0.00 0.00 0.00 61 1012.5
20260906013004 30 28 0.0 0.0 0.00 0.00 0.00 60 1012.6
20260906012505 30 28 0.0 0.0 0.00 0.00 0.00 59 1012.6
20260906012005 31 28 0.0 0.0 0.00 0.00 0.00 58 1012.6
20260906011504 31 28 0.0 0.0 0.00 0.00 0.00 58 1012.5
20260906011005 31 28 0.0 0.0 0.00 0.00 0.00 57 1012.5
20260906010504 31 28 0.0 0.0 0.00 0.00 0.00 57 1012.4
20260906010005 31 28 1.6 1.6 0.00 0.00 0.00 57 1012.4
20260906005504 31 28 0.0 1.6 0.00 0.00 0.00 56 1012.4
20260906005005 32 28 0.0 1.6 0.00 0.00 0.00 56 1012.4
20260906004504 32 28 4.8 4.8 0.00 0.00 0.00 55 1012.3
20260906004005 32 47 0.0 1.6 0.00 0.00 0.00 55 1012.3
20260906003505 32 57 1.6 1.6 0.00 0.00 0.00 54 1012.3
20260906003004 32 66 4.8 4.8 0.00 0.00 0.00 54 1012.3
20260906002504 32 38 0.0 1.6 0.00 0.00 0.00 54 1012.3
20260906002005 32 38 0.0 3.2 0.00 0.00 0.00 53 1012.3
20260906001505 33 17 1.6 4.8 0.00 0.00 0.00 53 1012.3
20260906001005 33 25 8.0 12.9 0.00 0.00 0.00 52 1012.4
20260906000504 33 38 1.6 3.2 0.00 0.00 0.00 53 1012.3
20260906000004 33 117 1.6 3.2 0.00 0.00 0.00 52 1012.4
20260905235505 33 38 1.6 3.2 0.00 0.00 0.00 52 1012.4
20260905235004 33 51 4.8 4.8 0.00 0.00 0.00 51 1012.4
20260905234504 33 25 3.2 8.0 0.00 0.00 0.00 51 1012.4
20260905234005 33 34 4.8 8.0 0.00 0.00 0.00 50 1012.4
20260905233504 33 34 3.2 4.8 0.00 0.00 0.00 50 1012.3
20260905233005 34 29 6.4 8.0 0.00 0.00 0.00 49 1012.3
20260905232504 34 35 4.8 4.8 0.00 0.00 0.00 49 1012.2
20260905232004 34 29 4.8 4.8 0.00 0.00 0.00 49 1012.2
20260905231504 34 29 3.2 8.0 0.00 0.00 0.00 49 1012.2
20260905231005 34 35 4.8 11.3 0.00 0.00 0.00 49 1012.1
20260905230505 34 18 3.2 4.8 0.00 0.00 0.00 48 1012.1
20260905230004 35 15 9.7 12.9 0.00 0.00 0.00 48 1012.0
20260905225505 35 38 6.4 8.0 0.00 0.00 0.00 48 1012.1
20260905225004 35 26 8.0 12.9 0.00 0.00 0.00 48 1012.1
20260905224505 35 34 8.0 9.7 0.00 0.00 0.00 47 1011.9
20260905224004 35 50 3.2 4.8 0.00 0.00 0.00 48 1011.9
20260905223504 35 33 3.2 3.2 0.00 0.00 0.00 48 1011.8
20260905223005 35 54 4.8 8.0 0.00 0.00 0.00 48 1011.8
20260905222504 35 43 3.2 11.3 0.00 0.00 0.00 48 1011.8
20260905222005 35 34 9.7 12.9 0.00 0.00 0.00 48 1011.8
20260905221505 35 32 3.2 4.8 0.00 0.00 0.00 47 1011.9
20260905221005 35 29 4.8 12.9 0.00 0.00 0.00 49 1011.9
20260905220504 35 42 9.7 12.9 0.00 0.00 0.00 48 1011.9
20260905220004 35 31 12.9 14.5 0.00 0.00 0.00 47 1011.9
20260905215504 35 39 4.8 20.9 0.00 0.00 0.00 47 1011.9
20260905215005 36 34 11.3 20.9 0.00 0.00 0.00 46 1012.0
20260905214504 36 34 9.7 20.9 0.00 0.00 0.00 45 1011.9
20260905214004 36 45 4.8 8.0 0.00 0.00 0.00 45 1011.8
20260905213504 36 20 4.8 8.0 0.00 0.00 0.00 46 1011.8
20260905213005 36 40 6.4 8.0 0.00 0.00 0.00 45 1011.9
20260905212505 36 19 4.8 4.8 0.00 0.00 0.00 46 1012.0
20260905212005 36 5 4.8 8.0 0.00 0.00 0.00 43 1012.1
20260905211505 37 25 8.0 9.7 0.00 0.00 0.00 42 1012.1
20260905211004 37 46 6.4 9.7 0.00 0.00 0.00 41 1012.3
20260905210504 37 351 1.6 3.2 0.00 0.00 0.00 41 1012.3
20260905210005 37 95 0.0 8.0 0.00 0.00 0.00 38 1012.4
20260905205505 37 44 3.2 8.0 0.00 0.00 0.00 41 1012.5
20260905205005 37 49 8.0 8.0 0.00 0.00 0.00 41 1012.7
20260905204505 37 50 3.2 12.9 0.00 0.00 0.00 39 1012.9
20260905204005 37 310 3.2 9.7 0.00 0.00 0.00 39 1012.9
20260905203504 37 357 4.8 4.8 0.00 0.00 0.00 39 1013.0
20260905203005 37 289 6.4 8.0 0.00 0.00 0.00 40 1013.0
20260905202506 37 346 1.6 4.8 0.00 0.00 0.00 39 1012.9
20260905193504 37 17 9.7 11.3 0.00 0.00 0.00 41 1013.4
20260905193005 36 346 3.2 4.8 0.00 0.00 0.00 43 1013.5
20260905192504 36 270 4.8 16.1 0.00 0.00 0.00 42 1013.5
20260905192004 36 7 6.4 8.0 0.00 0.00 0.00 44 1013.6
20260905191504 36 39 1.6 3.2 0.00 0.00 0.00 45 1013.6
20260905191004 36 22 3.2 4.8 0.00 0.00 0.00 43 1013.7
20260905190505 36 109 3.2 4.8 0.00 0.00 0.00 43 1013.9
20260905190004 36 42 4.8 8.0 0.00 0.00 0.00 42 1014.0
20260905185505 36 28 4.8 8.0 0.00 0.00 0.00 43 1014.0
20260905185005 36 22 4.8 8.0 0.00 0.00 0.00 43 1014.0
20260905184505 36 41 3.2 8.0 0.00 0.00 0.00 43 1014.1
20260905184005 36 337 3.2 8.0 0.00 0.00 0.00 42 1014.2
20260905183504 36 31 4.8 8.0 0.00 0.00 0.00 42 1014.2
20260905183005 36 29 6.4 9.7 0.00 0.00 0.00 42 1014.2
20260905182504 36 11 3.2 4.8 0.00 0.00 0.00 43 1014.3
20260905182005 36 40 1.6 3.2 0.00 0.00 0.00 42 1014.3
20260905181504 36 17 1.6 4.8 0.00 0.00 0.00 43 1014.3
20260905181005 36 242 3.2 4.8 0.00 0.00 0.00 44 1014.3
20260905180504 36 220 4.8 4.8 0.00 0.00 0.00 44 1014.3
20260905180004 36 91 1.6 3.2 0.00 0.00 0.00 45 1014.4
20260905175505 36 222 3.2 4.8 0.00 0.00 0.00 47 1014.4
20260905175005 35 307 1.6 3.2 0.00 0.00 0.00 47 1014.4
20260905174505 35 149 8.0 11.3 0.00 0.00 0.00 45 1014.4
20260905174004 35 102 1.6 8.0 0.00 0.00 0.00 46 1014.4
20260905173504 35 145 6.4 8.0 0.00 0.00 0.00 47 1014.4
20260905173005 35 134 6.4 9.7 0.00 0.00 0.00 49 1014.5
20260905172506 35 198 3.2 4.8 0.00 0.00 0.00 46 1014.6
20260905172005 35 218 4.8 4.8 0.00 0.00 0.00 47 1014.6
20260905171505 35 254 1.6 3.2 0.00 0.00 0.00 47 1014.6
20260905171004 35 333 4.8 4.8 0.00 0.00 0.00 46 1014.7
20260905170505 35 131 4.8 8.0 0.00 0.00 0.00 48 1014.8
20260905170004 35 208 3.2 8.0 0.00 0.00 0.00 51 1014.9
20260905165505 34 139 3.2 8.0 0.00 0.00 0.00 50 1014.9